Location: Ecklingerode
(51.5036°N, 10.3122°E)
Time: 07:19:03
(UTC+00:00)

Cosmos 44 - Pass Details

Date: 29 October 2020
Orbit: 577 x 784 km, 65.1° (Epoch: 01 December)

Event Time Altitude Azimuth Distance (km) Brightness Sun altitude
Rises 17:22:14 0° 229° (SW) 2,886 7.4 -13.8°
Reaches altitude 10° 17:24:27 10° 232° (SW) 2,012 6.6 -14.1°
Maximum altitude 17:28:59 67° 315° (NW) 719 3.5 -14.8°
Enters shadow 17:33:25 12° 38° (NE) 1,983 5.3 -15.5°
